Location: The Dilly Hill Observatory
(31.5262°N, 86.8310°W)
Time: 21:42:46
(UTC-05:00)

Envisat - Visible Passes

Search period start: 23 April 2018 00:00
Search period end: 03 May 2018 00:00
Orbit: 764 x 766 km, 98.2° (Epoch: 23 April)

Date Brightness Start Highest point End Pass type
(mag) Time Alt. Az. Time Alt. Az. Time Alt. Az.
23 Apr 5.0 21:09:53 10° SSW 21:13:59 25° W 21:18:07 10° NW visible
24 Apr 3.5 20:32:09 10° S 20:37:09 61° W 20:42:11 10° NNW visible
25 Apr 3.2 19:55:34 10° SSE 20:00:29 54° ENE 20:05:26 10° N visible
25 Apr 5.7 21:37:29 10° WSW 21:39:45 13° W 21:42:00 10° WNW visible
26 Apr 4.6 20:58:17 10° SSW 21:02:47 32° W 21:07:19 10° NW visible
27 Apr 3.1 20:20:56 10° S 20:26:00 81° WSW 20:31:06 10° NNW visible
28 Apr 3.5 19:44:40 10° SE 19:49:24 41° ENE 19:54:08 10° N visible
28 Apr 5.5 21:25:15 10° SW 21:28:30 17° W 21:31:47 10° NW visible
29 Apr 4.2 20:46:50 10° S 20:51:36 42° W 20:56:24 10° NNW visible
30 Apr 3.0 20:09:49 10° SSE 20:14:52 79° ENE 20:19:57 10° N visible
01 May 5.2 21:13:23 10° SSW 21:17:17 22° W 21:21:13 10° NW visible
02 May 3.7 20:35:29 10° S 20:40:26 55° W 20:45:25 10° NNW visible
